{"data":{"norad_id":46047,"intl_designator":"2020-055W","name":"STARLINK-1524","alt_names":[],"object_type":"PAYLOAD","status":"ACTIVE","operator":null,"country":"US","launch_date":"2020-08-07","launch_site_code":"AFETR","launch_vehicle":null,"mission":null,"orbit_class":"UNKNOWN","rcs_meters":null,"size_class":null,"mass_kg":null,"dimensions":null,"purposes":["comms"],"wikipedia_slug":null,"has_3d_model":false,"image_url":null,"decayed_at":null,"tle_current":{"epoch":"2026-09-20T02:01:01.995168Z","epoch_age_seconds":54161,"freshness":"FRESH","line1":"1 46047U 20055W   26263.08405087  .00005427  00000+0  18653-3 0  9997","line2":"2 46047  53.1633 289.3421 0000725  52.5748 307.5319 15.31696781338850","mean_motion":15.31696781,"eccentricity":7.25e-5,"inclination_deg":53.1633,"raan_deg":289.3421,"arg_perigee_deg":52.5748,"mean_anomaly_deg":307.5319,"bstar":0.00018653,"rev_number":33885,"period_min":94.013385538348,"perigee_km":470.25304663611,"apogee_km":471.24613519179,"semimajor_km":6848.8865909139,"source":"CELESTRAK","updated_at":"2026-09-20T09:00:38.461510Z"}}}